CZ-11 R/B (43945 NORAD) Tracking and Keplerian Element Data

This shows tracking and keplerian element data for the satellite.

Feedback or suggestion? Click here.




ElementValue
Catalog43945
NameCZ-11 R/B
Epoch Orbit103
Epoch Day27.75073016
Epoch Year2019
RAAN127.4318
Inclination97.3454
Eccentricity0.0129906
Argument of Perigee286.4086
Mean Anonmoly73.4532
Mean Motion16.29011077
Decay Rate0.10022908
L11 43945U 19005D 19027.75073016 .10022908 27326-5 11408-3 0 9992
L22 43945 97.3454 127.4318 0129906 286.4086 73.4532 16.29011077 1038

Live tracking and technical data element details for CZ-11 R/B (NORAD 43945). CZ-11 R/B can be tracked NOW for your location showing map with azimuth and elevation plus other details from your city location.

Track the satellite on the map from your city or location and see movement details for azimuth, elevation, latitude, longitude, range, height, and movement on the map or in text.







IsCatalogInMostPopularTable: catalog: 43945, numindb: 7
Update: records affected: 2



GetName: 43945 CZ-11 R/B

Hit Count: updated at: Tue, 16 Jul 2019 20:16:04 GMT